Charlottetown, Prince Edward Island

9:13 AM ADT on August 19, 2017 (GMT -0300)
Charlottetown

Weather History for CYYG - December, 2014

Change the Weather History Date:

Thursday, December 25, 2014

  Actual Average Record
Temperature  
Mean Temperature 50 °F -  
Max Temperature 57 °F 27 °F 57 °F (2014)
Min Temperature 42 °F 11 °F 0 °F (2000)
Degree Days  
Heating Degree Days 16    
Moisture  
Dew Point 51 °F    
Average Humidity 95    
Maximum Humidity 100    
Minimum Humidity 75    
Precipitation  
Precipitation 0.75 in 0.15 in - ()
Sea Level Pressure  
Sea Level Pressure 29.52 in    
Wind  
Wind Speed 19 mph ()    
Max Wind Speed 25 mph    
Max Gust Speed 36 mph    
Visibility 7.0 miles    
Events Fog , Rain    
Averages and records for this station are not official NWS values.
T = Trace of Precipitation, MM = Missing Value Source: Averaged Metar Reports

Daily Weather History Graph

Daily Weather History Graph

Search for Another Location

Airport or City:

Trip Planner

Search our weather history database for the weather conditions in past years. The results will help you decide how hot, cold, wet, or windy it might be!

Date:

Astronomy

Dec. 25, 2014 Rise Set
Actual Time 7:54 AM AST 4:31 PM AST
Civil Twilight 7:19 AM AST 5:05 PM AST
Nautical Twilight 6:41 AM AST 5:44 PM AST
Astronomical Twilight 6:04 AM AST 6:20 PM AST
Moon 10:12 AM AST (12/25) 9:13 PM AST (12/25)
Length of Visible Light 9h 46m
Length of Day
8h 36m
Waxing Crescent, 17% of the Moon is Illuminated
Dec 25
Waxing Crescent
Dec 28
First Quarter
Jan 5
Full
Jan 13
Last Quarter
Jan 20
New

Hourly Weather History & Observations

Time (AST) Temp. Windchill Dew Point Humidity Pressure Visibility Wind Dir Wind Speed Gust Speed Precip Events Conditions
12:00 AM 48.2 °F - 48.2 °F 100% 29.90 in 10.0 mi SSE 18.4 mph 27.6 mph N/A Rain Light Rain Showers
12:18 AM 48.2 °F - 48.2 °F 100% 29.88 in 10.0 mi SE 21.9 mph 28.8 mph N/A Rain Light Rain Showers
1:00 AM 48.2 °F - 48.2 °F 100% 29.85 in 10.0 mi SSE 24.2 mph 29.9 mph N/A Rain Light Rain Showers
2:00 AM 49 °F - 48 °F 97% 29.82 in 6 mi SSE 21.9 mph - - Rain Light Rain Showers
2:00 AM 50.0 °F - 48.2 °F 94% 29.82 in 6.0 mi SSE 20.7 mph 28.8 mph N/A Rain Light Rain Showers
2:52 AM 50.0 °F - 50.0 °F 100% 29.80 in 6.0 mi SSE 21.9 mph 28.8 mph N/A Rain Rain Showers
3:00 AM 50.0 °F - 50.0 °F 100% 29.79 in 6.0 mi SSE 21.9 mph 27.6 mph N/A Rain Rain Showers
4:00 AM 50.0 °F - 50.0 °F 100% 29.74 in 6.0 mi SE 20.7 mph 28.8 mph N/A Rain Rain
4:47 AM 51.8 °F - 50.0 °F 94% 29.72 in 3.0 mi SSE 24.2 mph 31.1 mph N/A Rain Heavy Rain
5:00 AM 51.8 °F - 50.0 °F 94% 29.70 in 3.0 mi SSE 21.9 mph 31.1 mph N/A Rain Heavy Rain
5:08 AM 51.8 °F - 50.0 °F 94% 29.70 in 2.0 mi SSE 23.0 mph 29.9 mph N/A Rain Heavy Rain
5:33 AM 51.8 °F - 50.0 °F 94% 29.70 in 4.0 mi SSE 24.2 mph 33.4 mph N/A Rain Rain
5:53 AM 51.8 °F - 50.0 °F 94% 29.68 in 6.0 mi SSE 25.3 mph 33.4 mph N/A Rain Light Rain
6:00 AM 51.8 °F - 50.0 °F 94% 29.68 in 6.0 mi SSE 25.3 mph 32.2 mph N/A Rain Light Rain
6:23 AM 51.8 °F - 50.0 °F 94% 29.67 in 8.0 mi SSE 21.9 mph 29.9 mph N/A Rain Light Rain Showers
6:48 AM 51.8 °F - 51.8 °F 100% 29.66 in 4.0 mi SSE 20.7 mph 31.1 mph N/A Rain Rain Showers
7:00 AM 51.8 °F - 51.8 °F 100% 29.65 in 6.0 mi SSE 21.9 mph 28.8 mph N/A Rain Light Rain Showers
7:11 AM 51.8 °F - 51.8 °F 100% 29.65 in 2.5 mi SSE 21.9 mph 28.8 mph N/A Rain Rain Showers
8:00 AM 54 °F - 53 °F 95% 29.61 in 2 mi SSE 23.0 mph - - Rain Heavy Rain Showers
8:00 AM 53.6 °F - 53.6 °F 100% 29.61 in 2.5 mi SSE 23.0 mph 31.1 mph N/A Rain Rain Showers
8:32 AM 53.6 °F - 53.6 °F 100% 29.60 in 3.0 mi SSE 23.0 mph 33.4 mph N/A Rain Light Rain Showers
9:00 AM 55.4 °F - 53.6 °F 94% 29.58 in 3.0 mi SSE 23.0 mph 28.8 mph N/A Rain Light Rain Showers
9:17 AM 55.4 °F - 53.6 °F 94% 29.57 in 4.0 mi SSE 20.7 mph 28.8 mph N/A   Overcast
10:00 AM 53.6 °F - 53.6 °F 100% 29.56 in 8.0 mi SSE 19.6 mph 28.8 mph N/A Fog Overcast
10:11 AM 53.6 °F - 53.6 °F 100% 29.55 in 8.0 mi SSE 18.4 mph 26.5 mph N/A Fog Overcast
11:00 AM 53.6 °F - 51.8 °F 94% 29.52 in 8.0 mi SSE 16.1 mph 23.0 mph N/A Fog Overcast
11:34 AM 55.4 °F - 53.6 °F 94% 29.47 in 10.0 mi SSE 23.0 mph 34.5 mph N/A Fog Overcast
11:51 AM 55.4 °F - 53.6 °F 94% 29.45 in 8.0 mi SSE 20.7 mph 28.8 mph N/A Fog Overcast
12:00 PM 55.4 °F - 53.6 °F 94% 29.44 in 8.0 mi SSE 19.6 mph 28.8 mph N/A Fog Overcast
12:15 PM 55.4 °F - 55.4 °F 100% 29.42 in 8.0 mi SSE 20.7 mph - N/A Fog Overcast
1:00 PM 57.2 °F - 55.4 °F 94% 29.37 in 8.0 mi South 23.0 mph - N/A Fog Overcast
1:10 PM 57.2 °F - 55.4 °F 94% 29.37 in 6.0 mi South 21.9 mph 33.4 mph N/A Fog , Rain Light Rain Showers
1:21 PM 57.2 °F - 55.4 °F 94% 29.37 in 3.0 mi South 23.0 mph 32.2 mph N/A Rain Rain Showers
1:30 PM 55.4 °F - 53.6 °F 94% 29.36 in 3.0 mi South 20.7 mph 33.4 mph N/A Rain Light Rain Showers
2:00 PM 56 °F - 55 °F 95% 29.35 in 4 mi South 24.2 mph - - Rain Light Rain Showers
2:00 PM 55.4 °F - 55.4 °F 100% 29.35 in 4.0 mi South 23.0 mph 33.4 mph N/A Fog , Rain Light Rain Showers
2:07 PM 55.4 °F - 55.4 °F 100% 29.33 in 2.0 mi South 20.7 mph 29.9 mph N/A Rain Light Rain Showers
2:20 PM 55.4 °F - 55.4 °F 100% 29.33 in 6.0 mi South 23.0 mph 32.2 mph N/A Fog , Rain Light Rain Showers
2:40 PM 55.4 °F - 55.4 °F 100% 29.37 in 2.5 mi SSW 23.0 mph 32.2 mph N/A Rain Rain Showers
3:00 PM 57.2 °F - 55.4 °F 94% 29.35 in 8.0 mi SW 13.8 mph 24.2 mph N/A Rain Light Rain Showers
3:50 PM 53.6 °F - 51.8 °F 94% 29.34 in 10.0 mi South 12.7 mph 19.6 mph N/A Rain Light Rain
4:00 PM 53.6 °F - 53.6 °F 100% 29.32 in 10.0 mi South 16.1 mph - N/A Rain Light Rain
4:34 PM 53.6 °F - 51.8 °F 94% 29.34 in 12.0 mi SSW 10.4 mph - N/A Rain Light Rain
5:00 PM 53.6 °F - 51.8 °F 94% 29.33 in 4.0 mi SSW 9.2 mph - N/A Rain Light Rain
5:10 PM 53.6 °F - 53.6 °F 100% 29.33 in 4.0 mi SSW 9.2 mph - N/A Rain Light Rain
5:15 PM 53.6 °F - 53.6 °F 100% 29.34 in 4.0 mi WSW 9.2 mph - N/A Rain Rain
5:23 PM 53.6 °F - 53.6 °F 100% 29.33 in 4.0 mi SW 13.8 mph 28.8 mph N/A Rain Heavy Rain
5:29 PM 53.6 °F - 53.6 °F 100% 29.33 in 6.0 mi SSW 10.4 mph 23.0 mph N/A Rain Light Rain
6:00 PM 53.6 °F - 51.8 °F 94% 29.33 in 8.0 mi SW 23.0 mph 35.7 mph N/A Rain Light Rain
6:45 PM 51.8 °F - 50.0 °F 94% 29.34 in 10.0 mi SW 15.0 mph 25.3 mph N/A Rain Light Rain
7:00 PM 50.0 °F - 48.2 °F 94% 29.34 in 8.0 mi WSW 19.6 mph 28.8 mph N/A Rain Light Rain
7:44 PM 48.2 °F - 42.8 °F 82% 29.37 in 15.0 mi WSW 12.7 mph 19.6 mph N/A Rain Light Rain
8:00 PM 47 °F - 42 °F 75% 29.39 in 15 mi West 15.0 mph - - Rain Light Rain
8:00 PM 46.4 °F 39.8 °F 41.0 °F 81% 29.39 in 15.0 mi WSW 16.1 mph 23.0 mph N/A Rain Light Rain
8:08 PM 46.4 °F 39.5 °F 41.0 °F 81% 29.39 in 15.0 mi West 17.3 mph 33.4 mph N/A   Scattered Clouds
9:00 PM 44.6 °F 37.2 °F 37.4 °F 76% 29.43 in 15.0 mi West 17.3 mph 25.3 mph N/A   Mostly Cloudy
10:00 PM 42.8 °F 35.8 °F 37.4 °F 81% 29.45 in 15.0 mi WSW 13.8 mph 21.9 mph N/A   Scattered Clouds
11:00 PM 42.8 °F 34.8 °F 35.6 °F 76% 29.46 in 15.0 mi SW 17.3 mph 23.0 mph N/A   Mostly Cloudy